contact:dominique.lefevre@mio.osupytheas.fr, maurice.libes@osupytheas.fr, didier.mallarino@osupytheas.fr
Project:EMSO http://www.emso-fr.org/EMSO-France
Depth: 2436.0 m
Title:EMSO Ligure Ouest : Data MII capteur AQUADOPP
Date,Latitude,Longitude,X_East,Y_North,Z_Up,Amplitude_X,Amplitude_Y,Amplitude_Z,Batterie,SoundSpeed,Heading,Pitch,Roll,Pressure,TIS,Speed,Direction
, degrees North, degrees East, m.s-1, m.s-1,m.s-1, 1, 1, 1, Volt, m.s-1, degree, degree, degree, dbar, degree_C, m.s-1, degree
2019-07-12T08:09:27,42.805,6.029,0.018,-0.032,-0.012,103.0,105.0,99.0,13.3,1505.2,326.2,-0.7,1.8,2470.28,13.3,0.036,150.6
2019-07-12T08:19:04,42.805,6.029,0.012,-0.013,-0.003,103.0,103.0,97.0,13.4,1505.2,325.8,-0.8,1.8,2470.236,13.29,0.017,137.3
2019-07-12T08:22:05,42.805,6.029,0.004,-0.01,-0.009,102.0,104.0,99.0,13.3,1505.2,323.5,-0.7,1.9,2470.198,13.3,0.01,158.2
2019-07-12T08:25:06,42.805,6.029,0.022,-0.026,-0.024,105.0,104.0,99.0,13.3,1505.3,324.7,-0.7,1.8,2470.192,13.31,0.034,139.8
2019-07-12T08:28:07,42.805,6.029,0.02,-0.027,0.009,103.0,104.0,99.0,13.4,1505.3,326.4,-0.8,1.9,2470.161,13.31,0.033,143.5
2019-07-12T08:31:08,42.805,6.029,0.011,-0.017,-0.002,103.0,104.0,99.0,13.4,1505.3,325.1,-0.8,1.9,2470.174,13.32,0.02,147.1
2019-07-12T08:34:09,42.805,6.029,0.001,-0.034,-0.002,104.0,103.0,99.0,13.3,1505.3,328.2,-0.7,1.8,2470.137,13.32,0.034,178.3
2019-07-12T08:37:10,42.805,6.029,0.0,-0.014,-0.014,102.0,104.0,100.0,13.4,1505.3,326.8,-0.7,1.8,2470.077,13.32,0.014,180.0
2019-07-12T08:40:11,42.805,6.029,0.021,-0.031,-0.023,104.0,103.0,99.0,13.4,1505.3,327.9,-0.7,1.8,2470.096,13.32,0.037,145.9
2019-07-12T08:43:12,42.805,6.029,0.021,-0.025,-0.015,102.0,104.0,99.0,13.3,1505.3,325.2,-0.7,1.8,2470.098,13.32,0.032,140.0
2019-07-12T08:46:13,42.805,6.029,0.022,-0.006,-0.027,103.0,105.0,100.0,13.4,1505.3,325.8,-0.7,1.8,2470.12,13.32,0.022,105.3
2019-07-12T08:49:14,42.805,6.029,0.055,-0.016,0.003,103.0,105.0,99.0,13.4,1505.3,327.2,-0.7,1.8,2470.121,13.32,0.057,106.2
2019-07-12T08:52:15,42.805,6.029,0.032,-0.029,0.006,103.0,104.0,99.0,13.4,1505.3,324.8,-0.7,1.9,2470.059,13.32,0.043,132.2
2019-07-12T08:55:16,42.805,6.029,0.031,-0.016,0.0,103.0,105.0,99.0,13.3,1505.3,325.5,-0.7,1.8,2470.129,13.32,0.034,117.3
2019-07-12T08:58:17,42.805,6.029,0.027,-0.009,-0.025,102.0,104.0,98.0,13.4,1505.3,326.4,-0.7,1.8,2470.072,13.32,0.028,108.4
2019-07-12T09:01:18,42.805,6.029,0.029,-0.006,0.032,102.0,103.0,99.0,13.4,1505.3,325.9,-0.7,1.8,2470.055,13.32,0.029,101.7
2019-07-12T09:04:19,42.805,6.029,0.047,-0.036,-0.008,101.0,102.0,99.0,13.4,1505.3,326.5,-0.7,1.8,2470.077,13.32,0.059,127.5
2019-07-12T09:07:20,42.805,6.029,0.02,-0.055,-0.037,101.0,103.0,99.0,13.4,1505.3,323.2,-0.7,1.8,2470.058,13.32,0.058,160.0
2019-07-12T09:10:21,42.805,6.029,0.013,-0.028,0.0,105.0,104.0,97.0,13.4,1505.3,326.7,-0.7,1.8,2470.028,13.32,0.03,155.1
2019-07-12T09:13:22,42.805,6.029,0.046,-0.054,-0.005,101.0,103.0,99.0,13.4,1505.3,325.8,-0.7,1.9,2470.037,13.32,0.07,139.6
2019-07-12T09:16:23,42.805,6.029,0.032,-0.036,-0.014,102.0,103.0,98.0,13.4,1505.3,324.0,-0.7,1.8,2470.026,13.32,0.048,138.4
2019-07-12T09:19:24,42.805,6.029,0.042,-0.037,-0.036,101.0,104.0,98.0,13.4,1505.3,325.1,-0.7,1.8,2470.018,13.32,0.055,131.4
2019-07-12T09:22:25,42.805,6.029,0.028,-0.035,-0.02,102.0,102.0,98.0,13.4,1505.3,327.9,-0.7,1.8,2470.015,13.32,0.044,141.3
2019-07-12T09:25:26,42.805,6.029,0.012,-0.019,-0.014,101.0,104.0,98.0,13.4,1505.3,326.6,-0.7,1.8,2470.035,13.32,0.022,147.7
2019-07-12T09:28:27,42.805,6.029,0.002,-0.019,-0.016,101.0,104.0,100.0,13.4,1505.3,324.7,-0.7,1.8,2470.017,13.32,0.019,174.0
2019-07-12T09:31:28,42.805,6.029,0.026,-0.024,0.005,102.0,106.0,99.0,13.4,1505.3,326.6,-0.7,1.8,2470.047,13.32,0.035,132.7
2019-07-12T09:34:29,42.805,6.029,0.024,-0.03,0.001,103.0,104.0,99.0,13.3,1505.3,327.5,-0.7,1.8,2470.057,13.32,0.038,141.3
2019-07-12T09:37:30,42.805,6.029,0.035,-0.03,-0.007,102.0,104.0,98.0,13.4,1505.3,324.6,-0.7,1.8,2470.005,13.32,0.046,130.6
2019-07-12T09:40:31,42.805,6.029,0.05,-0.022,0.004,102.0,104.0,99.0,13.4,1505.3,324.0,-0.8,1.8,2470.008,13.32,0.054,113.7
2019-07-12T09:43:32,42.805,6.029,0.046,-0.019,-0.029,102.0,105.0,99.0,13.3,1505.3,323.9,-0.7,1.8,2469.991,13.32,0.049,112.4
2019-07-12T09:46:33,42.805,6.029,0.027,-0.016,-0.001,101.0,104.0,99.0,13.3,1505.3,326.3,-0.7,1.8,2469.996,13.32,0.031,120.7
2019-07-12T09:49:34,42.805,6.029,0.016,-0.015,-0.035,103.0,105.0,99.0,13.4,1505.3,327.1,-0.7,1.8,2470.029,13.32,0.021,133.1
2019-07-12T09:52:35,42.805,6.029,0.027,-0.017,-0.012,104.0,104.0,99.0,13.3,1505.3,324.5,-0.7,1.8,2470.029,13.32,0.031,122.2
2019-07-12T09:55:36,42.805,6.029,0.037,-0.011,-0.005,103.0,105.0,100.0,13.4,1505.3,326.5,-0.8,1.8,2470.02,13.32,0.038,106.6
2019-07-12T09:58:37,42.805,6.029,0.04,-0.031,-0.007,101.0,106.0,98.0,13.4,1505.3,324.4,-0.7,1.8,2469.993,13.32,0.05,127.8
2019-07-12T10:01:38,42.805,6.029,0.03,-0.021,-0.028,103.0,105.0,99.0,13.4,1505.3,324.2,-0.8,1.8,2469.986,13.32,0.036,125.0
2019-07-12T10:04:39,42.805,6.029,0.009,-0.026,-0.028,102.0,104.0,98.0,13.4,1505.3,325.4,-0.7,1.9,2469.979,13.32,0.027,160.9
2019-07-12T10:07:40,42.805,6.029,0.024,-0.034,-0.002,101.0,103.0,98.0,13.4,1505.3,325.7,-0.7,1.8,2470.018,13.32,0.041,144.8
2019-07-12T10:10:41,42.805,6.029,0.052,-0.007,0.051,102.0,103.0,99.0,13.4,1505.3,323.2,-0.7,1.8,2470.008,13.32,0.052,97.7
2019-07-12T10:13:42,42.805,6.029,0.013,-0.013,0.005,102.0,105.0,99.0,13.4,1505.3,324.4,-0.7,1.8,2469.989,13.32,0.018,135.0
2019-07-12T10:16:43,42.805,6.029,0.043,0.014,0.0,103.0,105.0,99.0,13.3,1505.3,326.3,-0.7,1.9,2469.964,13.32,0.045,72.0
2019-07-12T10:19:44,42.805,6.029,0.02,-0.002,0.002,103.0,105.0,99.0,13.4,1505.3,322.8,-0.7,1.8,2470.016,13.32,0.02,95.7
2019-07-12T10:22:45,42.805,6.029,0.026,-0.015,0.006,103.0,105.0,100.0,13.4,1505.3,327.1,-0.7,1.9,2470.001,13.32,0.03,120.0
2019-07-12T10:25:46,42.805,6.029,0.024,-0.025,-0.005,103.0,104.0,99.0,13.3,1505.3,327.8,-0.7,1.8,2469.96,13.32,0.034,136.2
2019-07-12T10:28:47,42.805,6.029,0.004,-0.027,-0.007,105.0,105.0,99.0,13.4,1505.3,327.1,-0.7,1.8,2469.974,13.32,0.027,171.6
2019-07-12T10:31:48,42.805,6.029,0.029,0.001,0.012,100.0,105.0,99.0,13.4,1505.3,328.6,-0.7,1.8,2469.992,13.32,0.029,88.0
2019-07-12T10:34:49,42.805,6.029,0.027,-0.019,0.033,103.0,106.0,99.0,13.4,1505.3,325.9,-0.8,1.8,2470.01,13.32,0.033,125.1
2019-07-12T10:37:50,42.805,6.029,0.008,-0.007,-0.022,102.0,106.0,98.0,13.3,1505.3,325.0,-0.7,1.8,2470.026,13.32,0.01,131.2
2019-07-12T10:40:51,42.805,6.029,0.028,-0.031,0.038,103.0,105.0,98.0,13.4,1505.3,326.9,-0.7,1.8,2469.991,13.32,0.041,137.9
2019-07-12T10:43:52,42.805,6.029,0.012,-0.027,0.009,101.0,105.0,98.0,13.4,1505.3,326.1,-0.7,1.9,2470.005,13.32,0.029,156.0
2019-07-12T10:46:53,42.805,6.029,0.036,-0.016,-0.019,103.0,105.0,99.0,13.3,1505.3,326.9,-0.7,1.8,2469.968,13.32,0.039,114.0
2019-07-12T10:49:54,42.805,6.029,0.033,-0.022,0.007,101.0,106.0,98.0,13.4,1505.3,323.3,-0.7,1.8,2470.047,13.32,0.039,123.7
2019-07-12T10:52:55,42.805,6.029,0.017,-0.028,-0.025,102.0,106.0,98.0,13.4,1505.3,324.3,-0.7,1.8,2469.999,13.32,0.032,148.7
2019-07-12T10:55:56,42.805,6.029,0.028,-0.034,0.007,103.0,104.0,99.0,13.4,1505.3,323.3,-0.7,1.9,2469.988,13.32,0.044,140.5
2019-07-12T10:58:57,42.805,6.029,0.021,-0.035,-0.009,103.0,106.0,98.0,13.3,1505.3,324.5,-0.7,1.8,2469.995,13.32,0.04,149.0
2019-07-12T11:01:58,42.805,6.029,0.005,-0.031,-0.046,102.0,105.0,99.0,13.3,1505.3,324.3,-0.7,1.9,2470.031,13.32,0.031,170.8
2019-07-12T11:04:59,42.805,6.029,0.031,-0.012,0.005,102.0,105.0,99.0,13.4,1505.3,326.8,-0.7,1.8,2469.994,13.32,0.033,111.2
2019-07-12T11:08:00,42.805,6.029,0.051,-0.028,0.007,101.0,105.0,99.0,13.4,1505.3,323.8,-0.7,1.8,2470.004,13.32,0.058,118.8
2019-07-12T11:11:01,42.805,6.029,0.023,-0.022,0.0,102.0,106.0,99.0,13.4,1505.3,324.7,-0.8,1.8,2470.027,13.32,0.031,133.7
2019-07-12T11:14:02,42.805,6.029,0.021,-0.009,-0.006,103.0,106.0,100.0,13.3,1505.3,327.9,-0.8,1.8,2470.031,13.32,0.022,113.2
2019-07-12T11:17:03,42.805,6.029,0.029,-0.015,-0.041,103.0,106.0,98.0,13.4,1505.3,325.8,-0.7,1.8,2470.006,13.32,0.032,117.4
2019-07-12T11:20:04,42.805,6.029,0.011,-0.022,-0.001,104.0,107.0,99.0,13.4,1505.3,328.0,-0.7,1.8,2470.01,13.32,0.024,153.4
2019-07-12T11:23:05,42.805,6.029,0.013,-0.011,0.001,104.0,105.0,98.0,13.4,1505.3,324.3,-0.7,1.8,2470.006,13.32,0.017,130.2
2019-07-12T11:26:06,42.805,6.029,0.041,-0.013,0.007,101.0,106.0,99.0,13.3,1505.3,326.3,-0.7,1.8,2470.027,13.32,0.043,107.6
2019-07-12T11:29:07,42.805,6.029,0.051,-0.022,0.025,104.0,105.0,97.0,13.3,1505.3,327.5,-0.7,1.8,2470.038,13.32,0.055,113.3
2019-07-12T11:32:08,42.805,6.029,0.02,-0.015,-0.029,101.0,107.0,97.0,13.3,1505.3,324.3,-0.7,1.8,2470.035,13.32,0.025,126.9
2019-07-12T11:35:09,42.805,6.029,-0.006,-0.025,-0.013,101.0,104.0,99.0,13.4,1505.3,324.9,-0.7,1.8,2470.021,13.32,0.025,193.5
2019-07-12T11:38:10,42.805,6.029,0.034,-0.029,-0.037,102.0,104.0,97.0,13.3,1505.3,328.3,-0.7,1.8,2469.978,13.32,0.044,130.5
2019-07-12T11:41:11,42.805,6.029,0.023,-0.041,0.003,100.0,103.0,98.0,13.4,1505.3,323.4,-0.7,1.9,2469.968,13.32,0.047,150.7
2019-07-12T11:44:12,42.805,6.029,0.026,-0.031,-0.044,101.0,103.0,98.0,13.3,1505.3,327.1,-0.7,1.8,2470.016,13.32,0.04,140.0
2019-07-12T11:47:13,42.805,6.029,0.047,-0.013,-0.006,102.0,105.0,97.0,13.4,1505.3,327.8,-0.7,1.8,2469.991,13.32,0.048,105.5
2019-07-12T11:50:14,42.805,6.029,0.027,-0.012,-0.008,103.0,105.0,99.0,13.4,1505.3,323.3,-0.7,1.8,2470.038,13.32,0.029,114.0
2019-07-12T11:53:15,42.805,6.029,0.023,-0.012,0.03,103.0,105.0,99.0,13.4,1505.3,325.6,-0.7,1.9,2469.994,13.32,0.025,117.6
2019-07-12T11:56:16,42.805,6.029,0.037,-0.009,0.019,102.0,105.0,98.0,13.4,1505.3,327.9,-0.7,1.9,2470.018,13.32,0.038,103.7
2019-07-12T11:59:17,42.805,6.029,0.031,-0.03,0.0,102.0,104.0,101.0,13.3,1505.3,324.4,-0.7,1.8,2470.028,13.32,0.043,134.1
2019-07-12T12:02:18,42.805,6.029,0.02,-0.012,0.012,103.0,106.0,99.0,13.4,1505.3,325.6,-0.8,1.9,2470.05,13.32,0.023,121.0
2019-07-12T12:05:19,42.805,6.029,0.033,-0.014,0.021,102.0,105.0,98.0,13.3,1505.3,327.7,-0.7,1.8,2470.034,13.32,0.035,113.0
2019-07-12T12:08:20,42.805,6.029,0.022,-0.017,-0.028,102.0,105.0,99.0,13.4,1505.3,323.0,-0.8,1.8,2470.037,13.32,0.027,127.7
2019-07-12T12:11:21,42.805,6.029,0.057,-0.017,0.015,102.0,105.0,98.0,13.4,1505.3,326.2,-0.7,1.9,2470.01,13.32,0.059,106.6
2019-07-12T12:14:22,42.805,6.029,0.018,-0.008,-0.04,102.0,106.0,98.0,13.4,1505.3,327.9,-0.7,1.8,2470.062,13.32,0.019,114.0
2019-07-12T12:17:23,42.805,6.029,0.034,-0.008,0.017,101.0,106.0,98.0,13.4,1505.3,324.1,-0.7,1.9,2470.064,13.32,0.034,103.2
2019-07-12T12:20:24,42.805,6.029,0.063,-0.004,0.005,102.0,104.0,98.0,13.3,1505.3,328.6,-0.7,1.9,2470.005,13.32,0.063,93.6
2019-07-12T12:23:25,42.805,6.029,0.044,-0.019,0.02,102.0,105.0,99.0,13.4,1505.3,325.8,-0.7,1.9,2470.031,13.32,0.047,113.4
2019-07-12T12:26:26,42.805,6.029,0.046,-0.005,-0.026,102.0,104.0,99.0,13.3,1505.3,327.6,-0.7,1.8,2470.035,13.32,0.046,96.2
2019-07-12T12:29:27,42.805,6.029,0.035,-0.026,-0.012,102.0,105.0,100.0,13.4,1505.3,326.0,-0.7,1.9,2470.048,13.32,0.043,126.6
2019-07-12T12:32:28,42.805,6.029,0.029,-0.03,0.016,103.0,103.0,100.0,13.4,1505.3,326.9,-0.7,1.8,2470.052,13.32,0.041,136.0
2019-07-12T12:35:29,42.805,6.029,0.028,-0.003,-0.038,103.0,106.0,99.0,13.4,1505.3,326.7,-0.7,1.8,2470.034,13.32,0.028,96.1
2019-07-12T12:38:30,42.805,6.029,0.04,-0.006,-0.014,103.0,106.0,99.0,13.4,1505.3,326.0,-0.7,1.8,2470.052,13.32,0.04,98.5
2019-07-12T12:41:31,42.805,6.029,0.005,-0.014,-0.027,103.0,105.0,99.0,13.4,1505.3,326.3,-0.7,1.8,2470.038,13.32,0.014,160.4
2019-07-12T12:44:32,42.805,6.029,0.031,-0.008,-0.043,103.0,104.0,98.0,13.4,1505.3,328.5,-0.7,1.8,2470.013,13.32,0.032,104.5
2019-07-12T12:47:32,42.805,6.029,0.027,-0.002,-0.012,103.0,105.0,99.0,13.4,1505.3,326.9,-0.7,1.9,2470.018,13.32,0.027,94.2
2019-07-12T12:50:33,42.805,6.029,0.033,-0.009,-0.039,102.0,104.0,99.0,13.4,1505.3,327.7,-0.7,1.8,2470.055,13.32,0.034,105.3
2019-07-12T12:53:34,42.805,6.029,0.01,-0.034,-0.003,102.0,105.0,98.0,13.4,1505.3,326.4,-0.7,1.8,2470.051,13.32,0.035,163.6
2019-07-12T12:56:35,42.805,6.029,0.028,-0.016,-0.011,100.0,107.0,99.0,13.4,1505.3,324.6,-0.7,1.8,2470.105,13.32,0.032,119.7
2019-07-12T12:59:37,42.805,6.029,0.031,-0.014,-0.014,102.0,105.0,98.0,13.4,1505.3,326.6,-0.7,1.8,2470.057,13.32,0.034,114.3
2019-07-12T13:02:37,42.805,6.029,0.002,-0.009,0.012,102.0,105.0,99.0,13.4,1505.3,324.8,-0.7,1.8,2470.057,13.32,0.009,167.5
2019-07-12T13:05:38,42.805,6.029,0.023,0.0,-0.028,102.0,103.0,100.0,13.4,1505.3,327.3,-0.8,1.8,2470.036,13.32,0.023,90.0
2019-07-12T13:08:39,42.805,6.029,0.032,-0.024,0.01,103.0,105.0,99.0,13.3,1505.3,325.8,-0.7,1.8,2470.062,13.32,0.04,126.9
2019-07-12T13:11:40,42.805,6.029,0.043,0.004,-0.004,104.0,107.0,99.0,13.4,1505.3,325.0,-0.7,1.8,2470.063,13.32,0.043,84.7
2019-07-12T13:14:41,42.805,6.029,0.035,-0.018,0.02,103.0,105.0,100.0,13.3,1505.3,323.4,-0.7,1.8,2470.083,13.32,0.039,117.2
2019-07-12T13:17:43,42.805,6.029,0.038,-0.008,-0.034,103.0,105.0,100.0,13.4,1505.3,325.5,-0.7,1.8,2470.047,13.32,0.038,101.9
2019-07-12T13:20:43,42.805,6.029,0.05,-0.027,0.007,105.0,105.0,99.0,13.4,1505.3,323.9,-0.7,1.8,2470.053,13.32,0.056,118.4
2019-07-12T13:23:44,42.805,6.029,0.037,-0.015,-0.014,104.0,105.0,98.0,13.3,1505.3,324.8,-0.7,1.8,2470.027,13.32,0.039,112.1
2019-07-12T13:26:45,42.805,6.029,0.009,-0.017,-0.041,102.0,106.0,100.0,13.4,1505.3,324.4,-0.7,1.9,2470.052,13.32,0.019,152.1
2019-07-12T13:29:46,42.805,6.029,0.049,-0.012,0.0,102.0,105.0,99.0,13.3,1505.3,325.4,-0.7,1.8,2470.035,13.32,0.05,103.8
2019-07-12T13:32:47,42.805,6.029,0.024,-0.02,-0.023,103.0,108.0,98.0,13.3,1505.3,323.8,-0.7,1.8,2470.082,13.32,0.031,129.8
2019-07-12T13:35:48,42.805,6.029,0.034,-0.015,-0.019,103.0,107.0,99.0,13.4,1505.3,327.8,-0.7,1.9,2470.062,13.32,0.037,113.8
2019-07-12T13:38:49,42.805,6.029,0.03,-0.01,0.006,102.0,106.0,101.0,13.4,1505.3,326.7,-0.7,1.8,2470.077,13.32,0.031,108.4
2019-07-12T13:41:50,42.805,6.029,0.028,-0.01,-0.021,103.0,106.0,99.0,13.4,1505.3,324.5,-0.7,1.8,2470.099,13.32,0.029,109.6
2019-07-12T13:44:51,42.805,6.029,0.034,0.003,-0.04,104.0,104.0,99.0,13.3,1505.3,325.2,-0.7,1.9,2470.118,13.32,0.034,85.0
2019-07-12T13:47:52,42.805,6.029,0.006,-0.019,-0.04,102.0,107.0,100.0,13.4,1505.3,325.1,-0.7,1.8,2470.089,13.32,0.019,162.5
2019-07-12T13:50:53,42.805,6.029,0.015,-0.026,-0.019,102.0,105.0,99.0,13.3,1505.3,326.2,-0.7,1.9,2470.082,13.32,0.03,150.0
2019-07-12T13:53:54,42.805,6.029,0.025,-0.013,-0.004,104.0,106.0,99.0,13.4,1505.3,324.6,-0.7,1.8,2470.074,13.32,0.028,117.5
2019-07-12T13:56:55,42.805,6.029,0.044,-0.02,-0.014,104.0,106.0,98.0,13.4,1505.3,326.3,-0.7,1.8,2470.083,13.32,0.048,114.4
2019-07-12T13:59:56,42.805,6.029,0.019,0.001,-0.023,104.0,106.0,99.0,13.4,1505.3,323.1,-0.7,1.8,2470.1,13.32,0.019,87.0
2019-07-12T14:02:57,42.805,6.029,0.036,-0.025,0.013,101.0,105.0,98.0,13.4,1505.3,327.5,-0.7,1.8,2470.103,13.32,0.043,124.8
2019-07-12T14:05:58,42.805,6.029,0.028,-0.001,-0.01,103.0,104.0,99.0,13.4,1505.3,326.3,-0.7,1.8,2470.101,13.32,0.028,92.0
2019-07-12T14:08:59,42.805,6.029,0.032,-0.017,-0.037,103.0,106.0,100.0,13.3,1505.3,323.5,-0.7,1.8,2470.124,13.32,0.036,118.0
2019-07-12T14:12:00,42.805,6.029,0.035,-0.025,-0.009,104.0,105.0,99.0,13.4,1505.3,324.4,-0.7,1.9,2470.065,13.32,0.043,125.5
2019-07-12T14:15:01,42.805,6.029,0.025,-0.006,-0.023,103.0,107.0,100.0,13.4,1505.3,327.1,-0.7,1.8,2470.125,13.32,0.025,103.5
2019-07-12T14:18:02,42.805,6.029,0.006,-0.016,-0.047,102.0,106.0,99.0,13.4,1505.3,328.3,-0.8,1.8,2470.116,13.32,0.017,159.4
2019-07-12T14:21:03,42.805,6.029,0.046,-0.007,-0.005,104.0,106.0,99.0,13.4,1505.3,328.3,-0.7,1.8,2470.124,13.32,0.046,98.7
2019-07-12T14:24:04,42.805,6.029,0.052,0.0,-0.01,104.0,105.0,99.0,13.4,1505.3,325.6,-0.7,1.9,2470.127,13.32,0.052,90.0
2019-07-12T14:27:05,42.805,6.029,0.044,-0.012,-0.014,103.0,106.0,101.0,13.3,1505.3,323.2,-0.8,1.8,2470.128,13.32,0.045,105.3
2019-07-12T14:30:06,42.805,6.029,0.037,0.003,-0.02,103.0,106.0,99.0,13.4,1505.3,327.8,-0.7,1.8,2470.088,13.32,0.037,85.4
2019-07-12T14:33:07,42.805,6.029,0.044,-0.024,-0.036,104.0,107.0,99.0,13.4,1505.3,326.0,-0.7,1.8,2470.098,13.32,0.05,118.6
2019-07-12T14:36:08,42.805,6.029,0.039,0.0,-0.002,103.0,105.0,100.0,13.4,1505.3,323.1,-0.7,1.8,2470.081,13.32,0.039,90.0
2019-07-12T14:39:09,42.805,6.029,0.049,-0.014,-0.032,103.0,107.0,100.0,13.3,1505.3,328.0,-0.7,1.8,2470.127,13.32,0.05,105.9
2019-07-12T14:42:10,42.805,6.029,0.042,-0.006,-0.013,104.0,105.0,99.0,13.3,1505.3,326.2,-0.7,1.9,2470.141,13.32,0.042,98.1
2019-07-12T14:45:12,42.805,6.029,0.03,-0.006,-0.024,103.0,105.0,100.0,13.4,1505.3,323.6,-0.8,1.8,2470.088,13.32,0.03,101.3
2019-07-12T14:48:13,42.805,6.029,0.053,-0.007,0.008,104.0,106.0,100.0,13.4,1505.3,327.3,-0.7,1.9,2470.114,13.32,0.053,97.5
2019-07-12T14:51:14,42.805,6.029,0.059,-0.003,-0.031,104.0,107.0,99.0,13.4,1505.3,324.2,-0.7,1.8,2470.145,13.32,0.059,92.9
2019-07-12T14:54:15,42.805,6.029,0.058,-0.002,-0.02,104.0,106.0,99.0,13.4,1505.3,327.0,-0.7,1.8,2470.116,13.32,0.058,92.0
2019-07-12T14:57:16,42.805,6.029,0.034,-0.01,-0.021,103.0,105.0,99.0,13.4,1505.3,324.7,-0.7,1.8,2470.128,13.32,0.035,106.4
2019-07-12T15:00:17,42.805,6.029,0.039,-0.015,0.0,103.0,105.0,100.0,13.4,1505.3,328.3,-0.7,1.8,2470.091,13.32,0.041,111.0
2019-07-12T15:03:18,42.805,6.029,0.048,-0.017,-0.025,103.0,106.0,98.0,13.4,1505.3,327.2,-0.7,1.9,2470.136,13.32,0.05,109.5
2019-07-12T15:06:19,42.805,6.029,0.042,-0.012,-0.018,103.0,105.0,99.0,13.3,1505.3,323.3,-0.7,1.8,2470.122,13.32,0.043,105.9
2019-07-12T15:09:20,42.805,6.029,0.025,0.004,-0.042,103.0,105.0,100.0,13.4,1505.3,327.6,-0.6,1.8,2470.082,13.32,0.025,80.9
2019-07-12T15:12:21,42.805,6.029,0.051,-0.018,-0.044,103.0,105.0,98.0,13.4,1505.3,325.6,-0.7,1.9,2470.116,13.32,0.054,109.4
2019-07-12T15:15:22,42.805,6.029,0.047,-0.015,-0.032,104.0,106.0,100.0,13.4,1505.3,323.4,-0.7,1.8,2470.15,13.32,0.049,107.7
2019-07-12T15:18:23,42.805,6.029,0.031,-0.022,-0.04,103.0,107.0,100.0,13.4,1505.3,324.6,-0.7,1.8,2470.155,13.32,0.038,125.4
2019-07-12T15:21:24,42.805,6.029,0.04,-0.017,-0.049,103.0,104.0,99.0,13.4,1505.3,328.5,-0.7,1.8,2470.131,13.32,0.043,113.0
2019-07-12T15:24:25,42.805,6.029,0.035,-0.003,-0.023,104.0,106.0,99.0,13.3,1505.3,325.2,-0.8,1.9,2470.151,13.32,0.035,94.9
2019-07-12T15:27:26,42.805,6.029,0.063,-0.021,-0.013,103.0,104.0,99.0,13.4,1505.3,326.0,-0.7,1.8,2470.116,13.32,0.066,108.4
2019-07-12T15:30:27,42.805,6.029,0.051,-0.014,-0.016,103.0,104.0,99.0,13.4,1505.3,323.6,-0.7,1.9,2470.085,13.32,0.052,105.3
2019-07-12T15:33:28,42.805,6.029,0.048,-0.006,-0.023,102.0,106.0,100.0,13.4,1505.3,326.0,-0.8,1.9,2470.174,13.32,0.048,97.1
2019-07-12T15:36:29,42.805,6.029,0.047,-0.015,-0.023,104.0,104.0,99.0,13.4,1505.3,327.1,-0.7,1.9,2470.138,13.32,0.049,107.7
2019-07-12T15:39:30,42.805,6.029,0.06,-0.022,0.013,103.0,104.0,99.0,13.3,1505.3,323.5,-0.7,1.8,2470.111,13.32,0.063,110.1
2019-07-12T15:42:31,42.805,6.029,0.055,-0.036,-0.046,103.0,105.0,99.0,13.4,1505.3,326.6,-0.7,1.8,2470.142,13.32,0.065,123.2
2019-07-12T15:45:32,42.805,6.029,0.075,-0.015,-0.048,103.0,105.0,99.0,13.4,1505.3,325.9,-0.7,1.8,2470.133,13.32,0.076,101.3
2019-07-12T15:48:33,42.805,6.029,0.039,-0.003,-0.02,105.0,106.0,98.0,13.4,1505.3,327.9,-0.7,1.9,2470.101,13.32,0.039,94.4
2019-07-12T15:51:34,42.805,6.029,0.044,-0.019,-0.035,105.0,105.0,100.0,13.4,1505.3,325.4,-0.8,1.8,2470.138,13.32,0.047,113.4
2019-07-12T15:54:35,42.805,6.029,0.066,-0.024,-0.038,104.0,104.0,99.0,13.3,1505.3,326.7,-0.7,1.8,2470.117,13.32,0.07,110.0
2019-07-12T15:57:36,42.805,6.029,0.045,-0.011,0.012,103.0,103.0,98.0,13.3,1505.3,327.6,-0.8,1.8,2470.128,13.32,0.046,103.7
2019-07-12T16:00:37,42.805,6.029,0.052,-0.004,0.006,104.0,104.0,99.0,13.4,1505.3,325.0,-0.7,1.8,2470.129,13.32,0.052,94.4
2019-07-12T16:03:38,42.805,6.029,0.044,-0.026,-0.039,103.0,104.0,100.0,13.4,1505.3,324.2,-0.7,1.8,2470.14,13.32,0.051,120.6
2019-07-12T16:06:39,42.805,6.029,0.046,-0.001,0.001,103.0,105.0,99.0,13.4,1505.3,327.5,-0.7,1.8,2470.165,13.32,0.046,91.2
2019-07-12T16:09:40,42.805,6.029,0.039,-0.022,-0.015,103.0,106.0,100.0,13.3,1505.3,325.4,-0.7,1.8,2470.149,13.32,0.044,119.4
2019-07-12T16:12:41,42.805,6.029,0.032,-0.017,-0.017,105.0,107.0,99.0,13.4,1505.3,324.2,-0.7,1.8,2470.127,13.32,0.036,118.0
2019-07-12T16:15:42,42.805,6.029,0.061,-0.033,-0.012,103.0,106.0,98.0,13.4,1505.3,327.9,-0.7,1.8,2470.147,13.32,0.069,118.4
2019-07-12T16:18:43,42.805,6.029,0.036,-0.027,-0.018,103.0,104.0,100.0,13.4,1505.3,325.2,-0.7,1.8,2470.111,13.32,0.045,126.9
2019-07-12T16:21:44,42.805,6.029,0.05,-0.018,0.01,103.0,105.0,99.0,13.4,1505.3,326.5,-0.7,1.8,2470.156,13.32,0.053,109.8
2019-07-12T16:24:45,42.805,6.029,0.058,-0.018,-0.002,105.0,104.0,99.0,13.4,1505.3,324.8,-0.7,1.8,2470.121,13.32,0.06,107.2
2019-07-12T16:27:46,42.805,6.029,0.025,-0.033,-0.003,103.0,104.0,100.0,13.4,1505.3,326.4,-0.7,1.8,2470.133,13.32,0.041,142.8
2019-07-12T16:30:47,42.805,6.029,0.044,-0.021,-0.024,104.0,105.0,98.0,13.4,1505.3,323.8,-0.7,1.8,2470.168,13.32,0.048,115.5
2019-07-12T16:33:48,42.805,6.029,0.032,-0.029,-0.021,104.0,106.0,99.0,13.3,1505.3,325.9,-0.7,1.8,2470.171,13.32,0.043,132.2
2019-07-12T16:36:49,42.805,6.029,0.058,-0.013,-0.007,102.0,104.0,100.0,13.4,1505.3,325.8,-0.7,1.8,2470.172,13.32,0.059,102.6
2019-07-12T16:39:50,42.805,6.029,0.042,-0.029,-0.026,104.0,105.0,99.0,13.4,1505.3,323.2,-0.7,1.8,2470.17,13.32,0.051,124.6
2019-07-12T16:42:51,42.805,6.029,0.02,-0.016,-0.009,104.0,104.0,99.0,13.4,1505.3,326.5,-0.7,1.8,2470.134,13.32,0.025,128.7
2019-07-12T16:45:52,42.805,6.029,0.028,-0.028,-0.003,104.0,104.0,99.0,13.4,1505.3,324.6,-0.7,1.9,2470.096,13.32,0.039,135.0
2019-07-12T16:48:53,42.805,6.029,0.051,-0.002,-0.004,104.0,104.0,100.0,13.4,1505.3,323.5,-0.7,1.9,2470.175,13.32,0.051,92.2
2019-07-12T16:51:54,42.805,6.029,0.031,-0.031,0.0,104.0,108.0,99.0,13.3,1505.3,325.2,-0.7,1.8,2470.132,13.32,0.043,135.0
2019-07-12T16:54:55,42.805,6.029,0.057,-0.018,-0.01,103.0,106.0,99.0,13.4,1505.3,326.8,-0.8,1.8,2470.137,13.32,0.059,107.5
2019-07-12T16:57:56,42.805,6.029,0.044,-0.031,0.007,103.0,104.0,99.0,13.4,1505.3,324.8,-0.7,1.8,2470.136,13.32,0.053,125.2
2019-07-12T17:00:57,42.805,6.029,0.072,-0.01,-0.018,104.0,105.0,99.0,13.3,1505.3,327.1,-0.7,1.8,2470.173,13.32,0.072,97.9
2019-07-12T17:03:58,42.805,6.029,0.015,-0.044,-0.014,103.0,105.0,100.0,13.4,1505.3,327.4,-0.7,1.8,2470.154,13.32,0.046,161.2
2019-07-12T17:06:59,42.805,6.029,0.046,-0.015,-0.03,103.0,104.0,100.0,13.3,1505.3,323.5,-0.7,1.9,2470.111,13.32,0.048,108.1
2019-07-12T17:10:00,42.805,6.029,0.05,-0.015,-0.018,104.0,106.0,99.0,13.4,1505.3,327.9,-0.7,1.8,2470.177,13.32,0.052,106.7
2019-07-12T17:13:01,42.805,6.029,0.026,-0.017,-0.023,103.0,104.0,99.0,13.4,1505.3,325.4,-0.7,1.8,2470.157,13.32,0.031,123.2
2019-07-12T17:16:02,42.805,6.029,0.019,-0.015,-0.034,102.0,105.0,99.0,13.4,1505.3,325.7,-0.7,1.8,2470.135,13.32,0.024,128.3
2019-07-12T17:19:03,42.805,6.029,0.048,-0.015,-0.003,105.0,105.0,98.0,13.4,1505.3,327.9,-0.7,1.8,2470.126,13.32,0.05,107.4
2019-07-12T17:22:04,42.805,6.029,0.077,-0.038,0.005,103.0,105.0,100.0,13.4,1505.3,326.9,-0.7,1.9,2470.154,13.32,0.085,116.3
2019-07-12T17:25:05,42.805,6.029,0.062,-0.053,-0.014,103.0,103.0,99.0,13.3,1505.3,325.7,-0.8,1.8,2470.129,13.32,0.081,130.5
2019-07-12T17:28:06,42.805,6.029,0.042,-0.027,-0.03,103.0,103.0,98.0,13.4,1505.3,325.3,-0.7,1.8,2470.132,13.32,0.049,122.7
2019-07-12T17:31:07,42.805,6.029,0.042,-0.022,0.019,103.0,104.0,99.0,13.3,1505.3,323.4,-0.7,1.8,2470.152,13.32,0.047,117.6
2019-07-12T17:34:08,42.805,6.029,0.065,-0.04,-0.009,102.0,104.0,98.0,13.4,1505.3,327.8,-0.7,1.8,2470.136,13.32,0.076,121.6
2019-07-12T17:37:09,42.805,6.029,0.068,-0.032,-0.012,103.0,105.0,98.0,13.4,1505.3,326.1,-0.7,1.8,2470.154,13.32,0.075,115.2
2019-07-12T17:40:10,42.805,6.029,0.036,-0.044,-0.039,103.0,104.0,99.0,13.4,1505.3,327.8,-0.7,1.9,2470.153,13.32,0.056,140.7
2019-07-12T17:43:11,42.805,6.029,0.057,-0.029,-0.004,102.0,104.0,101.0,13.4,1505.3,325.4,-0.7,1.8,2470.157,13.32,0.063,117.0
2019-07-12T17:46:12,42.805,6.029,0.027,-0.024,-0.034,103.0,105.0,99.0,13.3,1505.3,327.1,-0.7,1.8,2470.148,13.32,0.036,131.6